| time (UTC) | temp C | wind direction | speed KPH | gust KPH | rain 1hr cm | rain 24hr cm | rain mn cm | humidity % | barometer mb |
| 20260504201609 | 20 | 146 | 6.4 | 17.7 | 0.00 | 0.00 | 0.00 | 40 | 1014.2 |
| 20260504201058 | 20 | 226 | 3.2 | 12.9 | 0.00 | 0.00 | 0.00 | 40 | 1014.3 |
| 20260504200600 | 20 | 119 | 4.8 | 16.1 | 0.00 | 0.00 | 0.00 | 41 | 1014.3 |
| 20260504200109 | 20 | 145 | 4.8 | 16.1 | 0.00 | 0.00 | 0.00 | 41 | 1014.4 |
| 20260504195556 | 20 | 146 | 3.2 | 11.3 | 0.00 | 0.00 | 0.00 | 43 | 1014.4 |
| 20260504195055 | 19 | 131 | 1.6 | 14.5 | 0.00 | 0.00 | 0.00 | 43 | 1014.4 |
| 20260504194555 | 19 | 151 | 4.8 | 11.3 | 0.00 | 0.00 | 0.00 | 43 | 1014.5 |
| 20260504194059 | 19 | 126 | 4.8 | 16.1 | 0.00 | 0.00 | 0.00 | 42 | 1014.6 |
| 20260504193554 | 19 | 164 | 9.7 | 16.1 | 0.00 | 0.00 | 0.00 | 41 | 1014.7 |
| 20260504193054 | 19 | 85 | 6.4 | 14.5 | 0.00 | 0.00 | 0.00 | 41 | 1014.7 |
| 20260504192554 | 20 | 174 | 4.8 | 11.3 | 0.00 | 0.00 | 0.00 | 40 | 1014.9 |
| 20260504192052 | 20 | 141 | 1.6 | 11.3 | 0.00 | 0.00 | 0.00 | 40 | 1014.9 |
| 20260504191552 | 20 | 239 | 1.6 | 14.5 | 0.00 | 0.00 | 0.00 | 41 | 1015.0 |
| 20260504191052 | 20 | 190 | 4.8 | 11.3 | 0.00 | 0.00 | 0.00 | 39 | 1015.1 |
| 20260504190550 | 20 | 167 | 3.2 | 19.3 | 0.00 | 0.00 | 0.00 | 40 | 1015.2 |
| 20260504190048 | 20 | 344 | 6.4 | 19.3 | 0.00 | 0.00 | 0.00 | 41 | 1015.2 |
| 20260504185552 | 20 | 3 | 8.0 | 24.1 | 0.00 | 0.00 | 0.00 | 42 | 1015.2 |
| 20260504185051 | 20 | 323 | 9.7 | 24.1 | 0.00 | 0.00 | 0.00 | 42 | 1015.3 |
| 20260504184556 | 19 | 249 | 4.8 | 24.1 | 0.00 | 0.00 | 0.00 | 41 | 1015.3 |
| 20260504184047 | 20 | 16 | 6.4 | 17.7 | 0.00 | 0.00 | 0.00 | 42 | 1015.4 |
| 20260504183547 | 20 | 214 | 3.2 | 20.9 | 0.00 | 0.00 | 0.00 | 42 | 1015.4 |
| 20260504183046 | 19 | 268 | 4.8 | 33.8 | 0.00 | 0.00 | 0.00 | 44 | 1015.5 |
| 20260504182546 | 18 | 152 | 9.7 | 33.8 | 0.00 | 0.00 | 0.00 | 43 | 1015.6 |
| 20260504182044 | 19 | 236 | 4.8 | 20.9 | 0.00 | 0.00 | 0.00 | 44 | 1015.8 |
| 20260504181546 | 19 | 247 | 8.0 | 19.3 | 0.00 | 0.00 | 0.00 | 42 | 1015.9 |
| 20260504181043 | 18 | 286 | 4.8 | 24.1 | 0.00 | 0.00 | 0.00 | 44 | 1016.0 |
| 20260504180544 | 18 | 121 | 6.4 | 24.1 | 0.00 | 0.00 | 0.00 | 43 | 1016.1 |
| 20260504180041 | 19 | 138 | 8.0 | 20.9 | 0.00 | 0.00 | 0.00 | 43 | 1016.1 |
| 20260504175541 | 18 | 350 | 6.4 | 22.5 | 0.00 | 0.00 | 0.00 | 43 | 1016.1 |
| 20260504175043 | 18 | 189 | 9.7 | 22.5 | 0.00 | 0.00 | 0.00 | 42 | 1016.2 |
| 20260504174541 | 19 | 278 | 6.4 | 25.7 | 0.00 | 0.00 | 0.00 | 42 | 1016.1 |
| 20260504174041 | 19 | 134 | 8.0 | 25.7 | 0.00 | 0.00 | 0.00 | 41 | 1016.2 |
| 20260504173539 | 18 | 243 | 3.2 | 14.5 | 0.00 | 0.00 | 0.00 | 41 | 1016.2 |
| 20260504173039 | 18 | 164 | 4.8 | 17.7 | 0.00 | 0.00 | 0.00 | 43 | 1016.3 |
| 20260504172539 | 18 | 211 | 6.4 | 17.7 | 0.00 | 0.00 | 0.00 | 41 | 1016.3 |
| 20260504172037 | 18 | 138 | 6.4 | 20.9 | 0.00 | 0.00 | 0.00 | 42 | 1016.2 |
| 20260504171537 | 18 | 234 | 6.4 | 20.9 | 0.00 | 0.00 | 0.00 | 41 | 1016.4 |
| 20260504171037 | 18 | 72 | 6.4 | 20.9 | 0.00 | 0.00 | 0.00 | 40 | 1016.5 |
| 20260504170534 | 18 | 203 | 8.0 | 22.5 | 0.00 | 0.00 | 0.00 | 40 | 1016.5 |
| 20260504151020 | 12 | 255 | 8.0 | 17.7 | 0.00 | 0.00 | 0.00 | 55 | 1018.7 |
| 20260504150519 | 12 | 324 | 4.8 | 22.5 | 0.00 | 0.00 | 0.00 | 56 | 1019.0 |
| 20260504141012 | 13 | 8 | 9.7 | 30.6 | 0.00 | 0.00 | 0.00 | 50 | 1018.5 |
| 20260504140511 | 13 | 316 | 12.9 | 30.6 | 0.00 | 0.00 | 0.00 | 50 | 1018.5 |
| 20260504130507 | 13 | 247 | 0.0 | 3.2 | 0.00 | 0.00 | 0.00 | 49 | 1017.9 |
| 20260504110549 | 6 | 3 | 1.6 | 6.4 | 0.00 | 0.00 | 0.00 | 70 | 1017.9 |
| 20260504100546 | 8 | 320 | 0.0 | 3.2 | 0.00 | 0.00 | 0.00 | 64 | 1017.6 |
| 20260504081544 | 2 | 236 | 0.0 | 4.8 | 0.00 | 0.00 | 0.00 | 80 | 1017.6 |
| 20260504081031 | 2 | 88 | 0.0 | 4.8 | 0.00 | 0.00 | 0.00 | 79 | 1017.6 |
| 20260504080530 | 2 | 106 | 0.0 | 3.2 | 0.00 | 0.00 | 0.00 | 78 | 1017.6 |
| 20260504050506 | 5 | 120 | 0.0 | 1.6 | 0.00 | 0.00 | 0.00 | 64 | 1018.4 |
| 20260504050013 | 5 | 119 | 0.0 | 1.6 | 0.00 | 0.00 | 0.00 | 65 | 1018.4 |
| 20260504045505 | 5 | 119 | 0.0 | 1.6 | 0.00 | 0.00 | 0.00 | 65 | 1018.4 |
| 20260504045005 | 5 | 119 | 0.0 | 1.6 | 0.00 | 0.00 | 0.00 | 65 | 1018.5 |
| 20260504044504 | 5 | 143 | 0.0 | 1.6 | 0.00 | 0.00 | 0.00 | 65 | 1018.4 |
| 20260504044003 | 5 | 120 | 0.0 | 1.6 | 0.00 | 0.00 | 0.00 | 65 | 1018.4 |
| 20260504043503 | 5 | 120 | 0.0 | 1.6 | 0.00 | 0.00 | 0.00 | 66 | 1018.3 |
| 20260504043003 | 5 | 120 | 0.0 | 1.6 | 0.00 | 0.00 | 0.00 | 65 | 1018.4 |
| 20260504042503 | 5 | 181 | 0.0 | 0.0 | 0.00 | 0.00 | 0.00 | 65 | 1018.4 |
| 20260504042005 | 5 | 181 | 0.0 | 0.0 | 0.00 | 0.00 | 0.00 | 65 | 1018.4 |
| 20260504041501 | 5 | 181 | 0.0 | 1.6 | 0.00 | 0.00 | 0.00 | 65 | 1018.3 |
| 20260504041100 | 5 | 181 | 0.0 | 1.6 | 0.00 | 0.00 | 0.00 | 65 | 1018.4 |
| 20260504040558 | 5 | 183 | 0.0 | 1.6 | 0.00 | 0.00 | 0.00 | 66 | 1018.3 |
| 20260504040057 | 5 | 183 | 0.0 | 1.6 | 0.00 | 0.00 | 0.00 | 64 | 1018.2 |
| 20260504035557 | 5 | 160 | 0.0 | 1.6 | 0.00 | 0.00 | 0.00 | 64 | 1018.4 |
| 20260504035057 | 6 | 112 | 1.6 | 1.6 | 0.00 | 0.00 | 0.00 | 61 | 1018.3 |
| 20260504034557 | 6 | 234 | 0.0 | 1.6 | 0.00 | 0.00 | 0.00 | 59 | 1018.2 |
| 20260504034056 | 7 | 234 | 0.0 | 1.6 | 0.00 | 0.00 | 0.00 | 57 | 1018.3 |
| 20260504033557 | 7 | 234 | 0.0 | 4.8 | 0.00 | 0.00 | 0.00 | 56 | 1018.2 |
| 20260504033101 | 7 | 218 | 0.0 | 6.4 | 0.00 | 0.00 | 0.00 | 55 | 1018.2 |
| 20260504032556 | 7 | 233 | 1.6 | 6.4 | 0.00 | 0.00 | 0.00 | 55 | 1018.2 |
| 20260504032056 | 7 | 212 | 1.6 | 3.2 | 0.00 | 0.00 | 0.00 | 55 | 1018.1 |
| 20260504031557 | 7 | 174 | 0.0 | 4.8 | 0.00 | 0.00 | 0.00 | 55 | 1018.1 |
| 20260504031056 | 7 | 217 | 0.0 | 4.8 | 0.00 | 0.00 | 0.00 | 54 | 1018.1 |
| 20260504030558 | 7 | 221 | 1.6 | 4.8 | 0.00 | 0.00 | 0.00 | 53 | 1018.2 |
| 20260504030055 | 7 | 230 | 0.0 | 6.4 | 0.00 | 0.00 | 0.00 | 52 | 1018.1 |
| 20260504025555 | 7 | 226 | 1.6 | 6.4 | 0.00 | 0.00 | 0.00 | 52 | 1018.2 |
| 20260504025055 | 7 | 188 | 1.6 | 4.8 | 0.00 | 0.00 | 0.00 | 51 | 1018.3 |
| 20260504024555 | 7 | 169 | 1.6 | 4.8 | 0.00 | 0.00 | 0.00 | 51 | 1018.4 |
| 20260504024057 | 7 | 136 | 1.6 | 4.8 | 0.00 | 0.00 | 0.00 | 50 | 1018.4 |
| 20260504023554 | 8 | 189 | 1.6 | 4.8 | 0.00 | 0.00 | 0.00 | 49 | 1018.4 |
| 20260504023054 | 8 | 233 | 1.6 | 4.8 | 0.00 | 0.00 | 0.00 | 48 | 1018.5 |
| 20260504022554 | 8 | 233 | 0.0 | 4.8 | 0.00 | 0.00 | 0.00 | 48 | 1018.4 |
| 20260504022054 | 7 | 151 | 1.6 | 4.8 | 0.00 | 0.00 | 0.00 | 49 | 1018.4 |
| 20260504021555 | 7 | 175 | 1.6 | 3.2 | 0.00 | 0.00 | 0.00 | 48 | 1018.4 |
| 20260504021053 | 8 | 127 | 1.6 | 6.4 | 0.00 | 0.00 | 0.00 | 48 | 1018.3 |
| 20260504020553 | 8 | 163 | 1.6 | 6.4 | 0.00 | 0.00 | 0.00 | 48 | 1018.2 |
| 20260504020128 | 8 | 223 | 1.6 | 6.4 | 0.00 | 0.00 | 0.00 | 48 | 1018.1 |
| 20260504015553 | 7 | 153 | 1.6 | 6.4 | 0.00 | 0.00 | 0.00 | 48 | 1018.0 |
| 20260504015053 | 8 | 109 | 1.6 | 6.4 | 0.00 | 0.00 | 0.00 | 48 | 1018.0 |
| 20260504014602 | 8 | 103 | 1.6 | 6.4 | 0.00 | 0.00 | 0.00 | 48 | 1018.0 |
| 20260504014051 | 8 | 117 | 1.6 | 4.8 | 0.00 | 0.00 | 0.00 | 47 | 1017.9 |
| 20260504013552 | 8 | 131 | 0.0 | 4.8 | 0.00 | 0.00 | 0.00 | 46 | 1017.9 |
| 20260504013106 | 8 | 100 | 1.6 | 4.8 | 0.00 | 0.00 | 0.00 | 46 | 1017.9 |
| 20260504012552 | 8 | 227 | 0.0 | 1.6 | 0.00 | 0.00 | 0.00 | 45 | 1017.9 |
| 20260504012055 | 8 | 231 | 0.0 | 4.8 | 0.00 | 0.00 | 0.00 | 43 | 1017.8 |
| 20260504011552 | 9 | 230 | 1.6 | 4.8 | 0.00 | 0.00 | 0.00 | 43 | 1017.7 |
| 20260504011052 | 9 | 162 | 0.0 | 4.8 | 0.00 | 0.00 | 0.00 | 44 | 1017.8 |
| 20260504010550 | 9 | 133 | 1.6 | 3.2 | 0.00 | 0.00 | 0.00 | 44 | 1017.7 |
| 20260504010050 | 9 | 149 | 1.6 | 3.2 | 0.00 | 0.00 | 0.00 | 44 | 1017.5 |
| 20260504005550 | 9 | 150 | 0.0 | 3.2 | 0.00 | 0.00 | 0.00 | 44 | 1017.5 |
| 20260504005050 | 10 | 151 | 0.0 | 6.4 | 0.00 | 0.00 | 0.00 | 42 | 1017.6 |
| 20260504004619 | 10 | 164 | 1.6 | 6.4 | 0.00 | 0.00 | 0.00 | 42 | 1017.5 |
| 20260504004049 | 10 | 151 | 1.6 | 9.7 | 0.00 | 0.00 | 0.00 | 40 | 1017.4 |
| 20260504003549 | 11 | 248 | 1.6 | 8.0 | 0.00 | 0.00 | 0.00 | 37 | 1017.3 |
| 20260504003053 | 11 | 212 | 0.0 | 6.4 | 0.00 | 0.00 | 0.00 | 37 | 1017.3 |
| 20260504002549 | 11 | 252 | 3.2 | 9.7 | 0.00 | 0.00 | 0.00 | 37 | 1017.3 |
| 20260504002049 | 11 | 236 | 1.6 | 9.7 | 0.00 | 0.00 | 0.00 | 37 | 1017.2 |
| 20260504001618 | 11 | 288 | 3.2 | 11.3 | 0.00 | 0.00 | 0.00 | 36 | 1017.2 |
| 20260504001050 | 11 | 245 | 3.2 | 11.3 | 0.00 | 0.00 | 0.00 | 35 | 1017.1 |
| 20260504000549 | 12 | 235 | 3.2 | 9.7 | 0.00 | 0.00 | 0.00 | 35 | 1017.2 |
| 20260504000053 | 12 | 218 | 1.6 | 9.7 | 0.00 | 0.00 | 0.00 | 34 | 1017.1 |
| 20260503235548 | 12 | 334 | 1.6 | 9.7 | 0.00 | 0.00 | 0.00 | 33 | 1017.1 |
| 20260503235049 | 12 | 283 | 1.6 | 11.3 | 0.00 | 0.00 | 0.00 | 32 | 1017.0 |
| 20260503234548 | 12 | 295 | 4.8 | 11.3 | 0.00 | 0.00 | 0.00 | 32 | 1017.0 |
| 20260503234047 | 13 | 290 | 1.6 | 16.1 | 0.00 | 0.00 | 0.00 | 32 | 1017.0 |
| 20260503233546 | 13 | 261 | 1.6 | 14.5 | 0.00 | 0.00 | 0.00 | 32 | 1017.0 |
| 20260503233047 | 13 | 232 | 4.8 | 16.1 | 0.00 | 0.00 | 0.00 | 31 | 1017.0 |
| 20260503232547 | 13 | 258 | 3.2 | 16.1 | 0.00 | 0.00 | 0.00 | 31 | 1016.9 |
| 20260503232046 | 13 | 300 | 1.6 | 17.7 | 0.00 | 0.00 | 0.00 | 31 | 1016.9 |
| 20260503231546 | 13 | 278 | 1.6 | 17.7 | 0.00 | 0.00 | 0.00 | 30 | 1016.9 |
| 20260503231047 | 13 | 350 | 3.2 | 17.7 | 0.00 | 0.00 | 0.00 | 30 | 1016.8 |
| 20260503230546 | 13 | 1 | 3.2 | 17.7 | 0.00 | 0.00 | 0.00 | 29 | 1017.0 |
| 20260503230107 | 13 | 252 | 8.0 | 17.7 | 0.00 | 0.00 | 0.00 | 29 | 1016.9 |
| 20260503225545 | 13 | 314 | 8.0 | 17.7 | 0.00 | 0.00 | 0.00 | 28 | 1017.0 |
| 20260503225045 | 13 | 25 | 4.8 | 12.9 | 0.00 | 0.00 | 0.00 | 27 | 1017.0 |
| 20260503224545 | 13 | 303 | 6.4 | 20.9 | 0.00 | 0.00 | 0.00 | 28 | 1017.0 |
| 20260503224045 | 13 | 330 | 6.4 | 20.9 | 0.00 | 0.00 | 0.00 | 28 | 1017.1 |
| 20260503223544 | 14 | 328 | 8.0 | 16.1 | 0.00 | 0.00 | 0.00 | 27 | 1017.0 |
| 20260503223046 | 14 | 308 | 3.2 | 16.1 | 0.00 | 0.00 | 0.00 | 27 | 1017.2 |
| 20260503222544 | 14 | 226 | 4.8 | 16.1 | 0.00 | 0.00 | 0.00 | 26 | 1017.1 |
| 20260503222044 | 13 | 19 | 4.8 | 22.5 | 0.00 | 0.00 | 0.00 | 26 | 1017.1 |
| 20260503221544 | 14 | 121 | 11.3 | 22.5 | 0.00 | 0.00 | 0.00 | 26 | 1017.3 |
| 20260503221044 | 14 | 284 | 6.4 | 22.5 | 0.00 | 0.00 | 0.00 | 25 | 1017.3 |
| 20260503220544 | 14 | 356 | 6.4 | 22.5 | 0.00 | 0.00 | 0.00 | 25 | 1017.2 |
| 20260503220048 | 14 | 19 | 11.3 | 22.5 | 0.00 | 0.00 | 0.00 | 25 | 1017.2 |
| 20260503215543 | 15 | 304 | 4.8 | 17.7 | 0.00 | 0.00 | 0.00 | 25 | 1017.2 |
| 20260503215042 | 14 | 247 | 4.8 | 20.9 | 0.00 | 0.00 | 0.00 | 24 | 1017.2 |
| 20260503214544 | 14 | 1 | 11.3 | 22.5 | 0.00 | 0.00 | 0.00 | 23 | 1017.3 |
| 20260503214043 | 14 | 4 | 4.8 | 22.5 | 0.00 | 0.00 | 0.00 | 24 | 1017.3 |
| 20260503213544 | 14 | 148 | 8.0 | 19.3 | 0.00 | 0.00 | 0.00 | 24 | 1017.3 |
| 20260503213044 | 14 | 104 | 6.4 | 22.5 | 0.00 | 0.00 | 0.00 | 24 | 1017.4 |
| 20260503212543 | 14 | 233 | 6.4 | 22.5 | 0.00 | 0.00 | 0.00 | 24 | 1017.4 |
| 20260503212042 | 14 | 65 | 3.2 | 22.5 | 0.00 | 0.00 | 0.00 | 24 | 1017.5 |
| 20260503211542 | 14 | 307 | 6.4 | 25.7 | 0.00 | 0.00 | 0.00 | 24 | 1017.5 |
| 20260503211041 | 15 | 300 | 11.3 | 25.7 | 0.00 | 0.00 | 0.00 | 23 | 1017.5 |
| 20260503210541 | 15 | 54 | 6.4 | 19.3 | 0.00 | 0.00 | 0.00 | 22 | 1017.6 |
| 20260503210041 | 15 | 132 | 6.4 | 20.9 | 0.00 | 0.00 | 0.00 | 22 | 1017.7 |
| 20260503205542 | 15 | 260 | 6.4 | 20.9 | 0.00 | 0.00 | 0.00 | 23 | 1017.8 |
| 20260503205041 | 14 | 219 | 4.8 | 19.3 | 0.00 | 0.00 | 0.00 | 23 | 1017.8 |
| 20260503204540 | 14 | 335 | 3.2 | 16.1 | 0.00 | 0.00 | 0.00 | 24 | 1017.9 |
| 20260503204040 | 15 | 248 | 8.0 | 17.7 | 0.00 | 0.00 | 0.00 | 22 | 1017.9 |
| 20260503203539 | 14 | 257 | 9.7 | 17.7 | 0.00 | 0.00 | 0.00 | 20 | 1018.1 |
| 20260503203057 | 15 | 286 | 8.0 | 17.7 | 0.00 | 0.00 | 0.00 | 22 | 1018.0 |
| 20260503202539 | 15 | 316 | 3.2 | 17.7 | 0.00 | 0.00 | 0.00 | 25 | 1018.0 |
| 20260503202041 | 15 | 281 | 4.8 | 17.7 | 0.00 | 0.00 | 0.00 | 25 | 1018.0 |